星链-37164(STARLINK-37164)

导读

STARLINK-37164(NORAD编号68324)是美国太空探索技术公司(SpaceX)星链(Starlink)星座中的一颗近地轨道通信卫星,星链项目旨在构建覆盖全球的太空宽带互联网,支持流媒体、在线服务等各类应用。 2025年12月该卫星发生异常,轨道高度骤降4000米,疑似发生内部爆炸,产生数十块碎片后与地面失联,卫星目前处于翻滚状态,SpaceX称其大致保持完整,预计将在几周内再入大气层焚毁,目前相关方正监测碎片轨迹,评估轨道风险。

基本信息
目录编号:
68324
目录名称:
STARLINK-37164
国际标识:
2026-059D
轨道中心:
EARTH
卫星名称:
星链-37164
卫星全名:
星链-37164(STARLINK-37164)
卫星状态:
在轨 (已飞行175 天)
发射日期:
2026-03-22 UTC
国别 :
美国 (US)
星等 :
--
该卫星已列入 空间交会检测服务 Space Conjunction Data Service (SCDS) ,当前飞行风险评估等级: 无高风险
轨道信息
数据来源 国际轨道数据 AOE轨道数据
星历时间 2026-09-13T10:34:05+0800
10小时前
查看轨道信息
2026-09-06T23:00:00+0800
6天前
查看轨道信息
半长轴 6840.834km 6840.899km
偏心率 0.0001296 0.0003688
轨道倾角 53.160° 53.158°
近地点辐角 106.621° 136.096°
升交点赤经 196.058° 226.363°
平近点角 253.494° 38.617°
近地点 461.81km 460.239km
远地点 463.584km 465.285km
周期 93.848分钟 93.849分钟
每日圈数 15.344021 15.343803
详细信息
固有亮度:
5
最大亮度:
2.5
卫星平台:
Starlink V1.0
覆盖范围:
全球
运营商:
太空探索技术公司
运营商所在国:
美国
制造商(研发单位):
太空探索技术公司
制造商所在国:
美国
使用方式:
暂无
卫星简介
Starlink 计划是 SpaceX 推出的全球卫星互联网项目,通过发射低轨道卫星,为全球尤其是偏远地区提供高速、低延迟的互联网服务。自 2019 年起,Starlink 已部署数千颗卫星,旨在缩小全球数字鸿沟,推动互联网普及。该项目还为军事、航空等行业提供通信支持,带来广泛经济效益。
2D轨道图
3D轨道图
轨道高度分析图
轨道倾角分析图
轨道综合分析图
查看轨道综合分析图
与全量物体交会距离演化趋势
与全量物体交会风险概率演化趋势